TimeCDT,TemperatureF,Dew PointF,Humidity,Sea Level PressureIn,VisibilityMPH,Wind Direction,Wind SpeedMPH,Gust SpeedMPH,PrecipitationIn,Events,Conditions,WindDirDegrees,DateUTC
12:54 AM,60.1,48.0,64,30.03,10.0,NNE,6.9,-,N/A,,Clear,20,2013-07-01 05:54:00
1:54 AM,60.1,48.0,64,30.03,10.0,NNE,9.2,-,N/A,,Clear,20,2013-07-01 06:54:00
2:54 AM,59.0,48.0,67,30.03,10.0,NNE,10.4,-,N/A,,Clear,20,2013-07-01 07:54:00
3:54 AM,59.0,48.0,67,30.04,10.0,NNE,10.4,-,N/A,,Clear,20,2013-07-01 08:54:00
4:54 AM,57.9,48.0,70,30.06,10.0,NNE,9.2,-,N/A,,Scattered Clouds,20,2013-07-01 09:54:00
5:54 AM,57.9,48.0,70,30.06,10.0,NNE,8.1,-,N/A,,Mostly Cloudy,30,2013-07-01 10:54:00
6:54 AM,60.1,48.9,67,30.07,10.0,NNE,10.4,-,N/A,,Scattered Clouds,20,2013-07-01 11:54:00
7:54 AM,64.0,51.1,63,30.09,10.0,NNE,8.1,-,N/A,,Scattered Clouds,20,2013-07-01 12:54:00
8:54 AM,70.0,53.1,55,30.10,10.0,NNE,8.1,-,N/A,,Scattered Clouds,30,2013-07-01 13:54:00
9:54 AM,73.0,50.0,44,30.09,10.0,NNE,12.7,-,N/A,,Partly Cloudy,30,2013-07-01 14:54:00
10:54 AM,75.0,52.0,44,30.09,10.0,NE,16.1,24.2,N/A,,Partly Cloudy,50,2013-07-01 15:54:00
11:54 AM,77.0,51.1,40,30.09,10.0,NE,11.5,21.9,N/A,,Partly Cloudy,50,2013-07-01 16:54:00
12:54 PM,78.1,48.9,36,30.08,10.0,NE,16.1,23.0,N/A,,Partly Cloudy,50,2013-07-01 17:54:00
1:54 PM,79.0,48.0,34,30.08,10.0,ENE,18.4,25.3,N/A,,Partly Cloudy,70,2013-07-01 18:54:00
2:54 PM,79.0,50.0,36,30.08,10.0,ENE,20.7,32.2,N/A,,Partly Cloudy,70,2013-07-01 19:54:00
3:54 PM,79.0,46.9,32,30.08,10.0,NE,17.3,27.6,N/A,,Partly Cloudy,40,2013-07-01 20:54:00
4:54 PM,79.0,48.0,34,30.08,10.0,NE,18.4,24.2,N/A,,Partly Cloudy,50,2013-07-01 21:54:00
5:54 PM,77.0,48.0,36,30.07,10.0,ENE,19.6,25.3,N/A,,Partly Cloudy,70,2013-07-01 22:54:00
6:54 PM,75.9,48.9,38,30.08,10.0,NE,19.6,24.2,N/A,,Partly Cloudy,50,2013-07-01 23:54:00
7:54 PM,73.9,51.1,45,30.08,10.0,ENE,9.2,-,N/A,,Partly Cloudy,60,2013-07-02 00:54:00
8:54 PM,70.0,52.0,53,30.09,10.0,ENE,5.8,-,N/A,,Partly Cloudy,70,2013-07-02 01:54:00
9:54 PM,68.0,52.0,56,30.10,10.0,ENE,4.6,-,N/A,,Partly Cloudy,70,2013-07-02 02:54:00
10:54 PM,64.9,51.1,61,30.10,10.0,ENE,5.8,-,N/A,,Clear,70,2013-07-02 03:54:00
11:54 PM,64.0,51.1,63,30.11,10.0,ENE,5.8,-,N/A,,Clear,60,2013-07-02 04:54:00